SKU011 LPPD-CYUL

Flight info

Callsign SKU011
Flight time N/A
Altitude 34000
Route SOMUL DCT 39N030W 43N040W DCT RAFIN/N0455F360 DCT MIILS DCT ODBOS OMBRE2
Aircraft A320/M-SDE3FGHIRWY/LB1

Departure

Time N/A
Airport João Paulo II Airport (LPPD)

Arrival

Time 2026-05-07 22:23
Airport Montreal / Pierre Elliott Trudeau International Airport (CYUL)
Time Latitude Longitude Altitude Speed Heading
2026-05-07 21:03 46.62595 -63.75899 35661 ft 380 kts 270°
2026-05-07 21:04 46.63277 -63.83528 35659 ft 381 kts 270°
2026-05-07 21:04 46.63959 -63.91166 35655 ft 381 kts 270°
2026-05-07 21:05 46.64625 -63.98775 35660 ft 381 kts 270°
2026-05-07 21:05 46.65296 -64.06432 35664 ft 382 kts 270°
2026-05-07 21:06 46.65966 -64.14096 35665 ft 382 kts 270°
2026-05-07 21:06 46.66631 -64.21779 35663 ft 382 kts 270°
2026-05-07 21:07 46.67287 -64.29456 35658 ft 382 kts 270°
2026-05-07 21:07 46.67944 -64.37138 35656 ft 383 kts 270°
2026-05-07 21:08 46.68591 -64.44844 35655 ft 383 kts 270°
2026-05-07 21:08 46.69235 -64.52556 35661 ft 384 kts 270°
2026-05-07 21:09 46.69874 -64.60281 35671 ft 385 kts 270°
2026-05-07 21:09 46.70510 -64.68031 35675 ft 385 kts 270°
2026-05-07 21:10 46.71140 -64.75776 35675 ft 385 kts 270°
2026-05-07 21:10 46.71764 -64.83527 35676 ft 385 kts 270°
2026-05-07 21:11 46.72390 -64.91287 35682 ft 386 kts 270°
2026-05-07 21:11 46.73307 -65.02936 35680 ft 385 kts 270°
2026-05-07 21:12 46.73913 -65.10695 35674 ft 385 kts 270°
2026-05-07 21:12 46.74518 -65.18473 35677 ft 386 kts 270°
2026-05-07 21:13 46.75118 -65.26240 35669 ft 386 kts 270°
2026-05-07 21:13 46.75706 -65.34009 35667 ft 386 kts 270°
2026-05-07 21:14 46.76288 -65.41748 35671 ft 386 kts 270°
2026-05-07 21:14 46.76874 -65.49532 35669 ft 386 kts 270°
2026-05-07 21:15 46.77462 -65.57388 35675 ft 387 kts 270°
2026-05-07 21:15 46.78025 -65.65139 35670 ft 387 kts 269°
2026-05-07 21:16 46.78593 -65.72949 35674 ft 387 kts 269°
2026-05-07 21:16 46.79162 -65.80776 35678 ft 387 kts 269°
2026-05-07 21:17 46.79717 -65.88593 35671 ft 388 kts 269°
2026-05-07 21:17 46.80270 -65.96416 35674 ft 388 kts 269°
2026-05-07 21:18 46.80820 -66.04255 35677 ft 388 kts 269°
2026-05-07 21:18 46.81361 -66.12080 35677 ft 387 kts 269°
2026-05-07 21:19 46.81901 -66.19900 35677 ft 387 kts 269°
2026-05-07 21:19 46.82439 -66.27728 35683 ft 387 kts 269°
2026-05-07 21:20 46.82959 -66.35537 35676 ft 387 kts 269°
2026-05-07 21:20 46.83475 -66.43359 35672 ft 387 kts 269°
2026-05-07 21:21 46.83986 -66.51124 35675 ft 387 kts 269°
2026-05-07 21:21 46.84497 -66.58948 35677 ft 387 kts 269°
2026-05-07 21:22 46.85001 -66.66798 35679 ft 388 kts 269°
2026-05-07 21:22 46.85505 -66.74644 35682 ft 388 kts 269°
2026-05-07 21:23 46.86003 -66.82511 35687 ft 389 kts 269°
2026-05-07 21:23 46.86489 -66.90374 35674 ft 389 kts 269°
2026-05-07 21:24 46.86969 -66.98250 35687 ft 390 kts 269°
2026-05-07 21:24 46.86946 -67.06070 35687 ft 381 kts 255°
2026-05-07 21:25 46.85398 -67.13410 35685 ft 378 kts 249°
2026-05-07 21:25 46.83717 -67.20710 35689 ft 379 kts 249°
2026-05-07 21:26 46.82035 -67.28010 35693 ft 380 kts 249°
2026-05-07 21:26 46.80339 -67.35318 35699 ft 380 kts 249°
2026-05-07 21:27 46.78634 -67.42630 35681 ft 380 kts 249°
2026-05-07 21:27 46.76927 -67.49926 35678 ft 380 kts 249°
2026-05-07 21:28 46.75219 -67.57227 35682 ft 381 kts 249°
2026-05-07 21:28 46.73795 -67.63302 35694 ft 381 kts 249°
2026-05-07 21:29 46.71794 -67.71792 35703 ft 381 kts 249°
2026-05-07 21:29 46.70346 -67.77895 35702 ft 381 kts 249°
2026-05-07 21:30 46.68615 -67.85189 35709 ft 380 kts 249°
2026-05-07 21:30 46.66883 -67.92452 35718 ft 380 kts 249°
2026-05-07 21:31 46.65155 -67.99705 35726 ft 379 kts 249°
2026-05-07 21:31 46.63417 -68.06965 35719 ft 379 kts 249°
2026-05-07 21:32 46.61672 -68.14203 35726 ft 379 kts 249°
2026-05-07 21:32 46.59921 -68.21442 35724 ft 379 kts 249°
2026-05-07 21:33 46.58187 -68.28614 35727 ft 379 kts 249°
2026-05-07 21:33 46.56437 -68.35826 35720 ft 378 kts 249°
2026-05-07 21:34 46.54683 -68.43029 35717 ft 378 kts 249°
2026-05-07 21:34 46.52925 -68.50239 35709 ft 378 kts 249°
2026-05-07 21:35 46.51167 -68.57420 35710 ft 378 kts 249°
2026-05-07 21:35 46.49395 -68.64617 35714 ft 378 kts 249°
2026-05-07 21:36 46.47618 -68.71820 35718 ft 379 kts 249°
2026-05-07 21:36 46.45831 -68.79014 35720 ft 379 kts 248°
2026-05-07 21:37 46.44046 -68.86201 35724 ft 379 kts 249°
2026-05-07 21:37 46.42255 -68.93386 35730 ft 379 kts 248°
2026-05-07 21:38 46.40461 -69.00560 35732 ft 379 kts 248°
2026-05-07 21:38 46.38663 -69.07735 35729 ft 379 kts 248°
2026-05-07 21:39 46.36864 -69.14899 35734 ft 379 kts 248°
2026-05-07 21:39 46.35060 -69.22067 35736 ft 379 kts 248°
2026-05-07 21:40 46.33242 -69.29234 35739 ft 379 kts 248°
2026-05-07 21:40 46.31440 -69.36336 35738 ft 379 kts 248°
2026-05-07 21:41 46.29615 -69.43499 35729 ft 379 kts 248°
2026-05-07 21:41 46.27791 -69.50645 35731 ft 379 kts 248°
2026-05-07 21:42 46.25963 -69.57794 35728 ft 380 kts 248°
2026-05-07 21:42 46.24124 -69.64955 35730 ft 380 kts 248°
2026-05-07 21:43 46.22280 -69.72100 35732 ft 380 kts 248°
2026-05-07 21:43 46.20429 -69.79242 35731 ft 380 kts 248°
2026-05-07 21:44 46.18573 -69.86396 35737 ft 380 kts 248°
2026-05-07 21:44 46.16718 -69.93533 35742 ft 380 kts 248°
2026-05-07 21:45 46.14859 -70.00665 35747 ft 380 kts 248°
2026-05-07 21:45 46.12992 -70.07789 35749 ft 380 kts 248°
2026-05-07 21:46 46.11119 -70.14911 35749 ft 379 kts 248°
2026-05-07 21:46 46.09247 -70.22017 35753 ft 379 kts 248°
2026-05-07 21:47 46.07381 -70.29080 35755 ft 379 kts 248°
2026-05-07 21:47 46.05500 -70.36174 35755 ft 379 kts 248°
2026-05-07 21:48 46.03609 -70.43266 35757 ft 380 kts 248°
2026-05-07 21:48 46.01715 -70.50352 35754 ft 380 kts 247°
2026-05-07 21:49 45.99820 -70.57436 35760 ft 380 kts 248°
2026-05-07 21:49 45.97918 -70.64530 35433 ft 380 kts 247°
2026-05-07 21:50 45.96963 -70.68079 35198 ft 379 kts 247°
2026-05-07 21:50 45.96010 -70.71621 34891 ft 380 kts 247°
2026-05-07 21:50 45.95058 -70.75147 34436 ft 379 kts 247°
2026-05-07 21:50 45.94105 -70.78672 33986 ft 377 kts 247°
2026-05-07 21:51 45.93193 -70.82193 33497 ft 377 kts 250°
2026-05-07 21:51 45.92555 -70.85855 32972 ft 379 kts 257°
2026-05-07 21:51 45.92248 -70.89626 32452 ft 380 kts 262°
2026-05-07 21:51 45.92067 -70.93393 31949 ft 377 kts 262°
2026-05-07 21:52 45.91884 -70.97133 31454 ft 373 kts 262°
2026-05-07 21:52 45.91699 -71.00818 30970 ft 369 kts 262°
2026-05-07 21:52 45.91511 -71.04473 30491 ft 365 kts 262°
2026-05-07 21:52 45.91318 -71.08086 30021 ft 360 kts 262°
2026-05-07 21:53 45.91125 -71.11657 29489 ft 356 kts 262°
2026-05-07 21:53 45.90936 -71.15179 28914 ft 353 kts 262°
2026-05-07 21:53 45.90751 -71.18678 28363 ft 349 kts 262°
2026-05-07 21:53 45.90566 -71.22145 27819 ft 346 kts 262°
2026-05-07 21:54 45.90383 -71.25572 27282 ft 344 kts 262°
2026-05-07 21:54 45.90202 -71.28982 26765 ft 341 kts 262°
2026-05-07 21:54 45.90019 -71.32364 26248 ft 339 kts 262°
2026-05-07 21:54 45.89836 -71.35724 25620 ft 338 kts 262°
2026-05-07 21:55 45.89652 -71.39081 24995 ft 336 kts 263°
2026-05-07 21:55 45.89470 -71.42413 24395 ft 335 kts 263°
2026-05-07 21:55 45.89286 -71.45741 23801 ft 333 kts 263°
2026-05-07 21:55 45.89101 -71.49056 23186 ft 332 kts 263°
2026-05-07 21:56 45.88916 -71.52351 22485 ft 332 kts 263°
2026-05-07 21:56 45.88726 -71.55654 21797 ft 332 kts 263°
2026-05-07 21:56 45.88537 -71.58958 21125 ft 332 kts 263°
2026-05-07 21:56 45.88349 -71.62262 20466 ft 332 kts 264°
2026-05-07 21:57 45.88161 -71.65554 19826 ft 332 kts 264°
2026-05-07 21:57 45.87971 -71.68859 19195 ft 332 kts 264°
2026-05-07 21:57 45.87785 -71.72124 18586 ft 332 kts 264°
2026-05-07 21:57 45.87591 -71.75470 17958 ft 333 kts 264°
2026-05-07 21:58 45.87397 -71.78751 17268 ft 334 kts 264°
2026-05-07 21:58 45.87197 -71.82113 16579 ft 335 kts 264°
2026-05-07 21:58 45.86999 -71.85459 15909 ft 336 kts 265°
2026-05-07 21:58 45.86804 -71.88765 15261 ft 337 kts 265°
2026-05-07 21:59 45.86605 -71.92118 14621 ft 339 kts 265°
2026-05-07 21:59 45.86406 -71.95485 13995 ft 340 kts 265°
2026-05-07 21:59 45.86203 -71.98870 13343 ft 341 kts 265°
2026-05-07 21:59 45.86000 -72.02259 12656 ft 341 kts 265°
2026-05-07 22:00 45.85799 -72.05638 12093 ft 337 kts 265°
2026-05-07 22:00 45.85598 -72.08945 11617 ft 330 kts 265°
2026-05-07 22:00 45.85400 -72.12174 11126 ft 316 kts 265°
2026-05-07 22:00 45.85211 -72.15227 10673 ft 298 kts 265°
2026-05-07 22:01 45.85032 -72.18105 10350 ft 281 kts 265°
2026-05-07 22:01 45.84866 -72.20781 10313 ft 260 kts 265°
2026-05-07 22:01 45.84708 -72.23339 10315 ft 257 kts 266°
2026-05-07 22:01 45.84551 -72.25887 10311 ft 256 kts 265°
2026-05-07 22:02 45.84391 -72.28437 10320 ft 257 kts 265°
2026-05-07 22:02 45.84235 -72.30921 10316 ft 256 kts 265°
2026-05-07 22:02 45.84075 -72.33457 10320 ft 256 kts 265°
2026-05-07 22:02 45.83919 -72.35927 10309 ft 256 kts 265°
2026-05-07 22:03 45.83756 -72.38476 10176 ft 256 kts 265°
2026-05-07 22:03 45.83594 -72.41015 9933 ft 255 kts 265°
2026-05-07 22:03 45.83433 -72.43534 9726 ft 253 kts 265°
2026-05-07 22:03 45.83270 -72.46055 9591 ft 254 kts 265°
2026-05-07 22:04 45.83105 -72.48574 9447 ft 253 kts 265°
2026-05-07 22:04 45.82943 -72.51083 9304 ft 253 kts 265°
2026-05-07 22:04 45.82782 -72.53595 9177 ft 252 kts 265°
2026-05-07 22:04 45.82620 -72.56096 9031 ft 251 kts 265°
2026-05-07 22:05 45.82460 -72.58585 8895 ft 251 kts 265°
2026-05-07 22:05 45.82297 -72.61073 8758 ft 250 kts 265°
2026-05-07 22:05 45.82133 -72.63565 8411 ft 251 kts 265°
2026-05-07 22:05 45.81967 -72.66043 8014 ft 249 kts 265°
2026-05-07 22:06 45.81802 -72.68508 7620 ft 247 kts 265°
2026-05-07 22:06 45.81639 -72.70944 7330 ft 242 kts 265°
2026-05-07 22:06 45.81480 -72.73293 7124 ft 233 kts 265°
2026-05-07 22:06 45.81326 -72.75567 6920 ft 225 kts 264°
2026-05-07 22:07 45.80995 -72.77724 6714 ft 220 kts 252°
2026-05-07 22:07 45.80356 -72.79715 6518 ft 220 kts 244°
2026-05-07 22:07 45.79631 -72.81625 6318 ft 218 kts 244°
2026-05-07 22:07 45.78909 -72.83538 6108 ft 217 kts 244°
2026-05-07 22:08 45.78192 -72.85437 5889 ft 217 kts 244°
2026-05-07 22:08 45.77486 -72.87309 5683 ft 216 kts 244°
2026-05-07 22:08 45.76766 -72.89218 5468 ft 215 kts 244°
2026-05-07 22:08 45.76061 -72.91078 5259 ft 215 kts 244°
2026-05-07 22:09 45.75335 -72.92987 4955 ft 217 kts 244°
2026-05-07 22:09 45.74611 -72.94897 4551 ft 218 kts 244°
2026-05-07 22:09 45.73889 -72.96806 4164 ft 219 kts 244°
2026-05-07 22:09 45.73170 -72.98705 3964 ft 213 kts 244°
2026-05-07 22:10 45.72469 -73.00562 3845 ft 212 kts 246°
2026-05-07 22:10 45.71946 -73.02512 3835 ft 209 kts 257°
2026-05-07 22:10 45.71681 -73.04551 3838 ft 209 kts 263°
2026-05-07 22:10 45.71473 -73.06581 3836 ft 209 kts 263°
2026-05-07 22:11 45.71256 -73.08630 3833 ft 209 kts 262°
2026-05-07 22:11 45.71039 -73.10683 3839 ft 209 kts 262°
2026-05-07 22:11 45.70797 -73.12734 3836 ft 210 kts 258°
2026-05-07 22:11 45.70435 -73.14730 3701 ft 204 kts 257°
2026-05-07 22:12 45.70084 -73.16640 3585 ft 193 kts 257°
2026-05-07 22:12 45.69751 -73.18456 3464 ft 185 kts 257°
2026-05-07 22:12 45.69429 -73.20212 3329 ft 179 kts 257°
2026-05-07 22:12 45.69117 -73.21912 3203 ft 175 kts 257°
2026-05-07 22:13 45.68913 -73.23023 3121 ft 173 kts 257°
2026-05-07 22:13 45.68615 -73.24659 2991 ft 168 kts 257°
2026-05-07 22:13 45.68323 -73.26270 2918 ft 166 kts 257°
2026-05-07 22:13 45.68034 -73.27866 2841 ft 165 kts 258°
2026-05-07 22:14 45.67746 -73.29454 2840 ft 164 kts 257°
2026-05-07 22:14 45.67459 -73.31038 2833 ft 166 kts 257°
2026-05-07 22:14 45.67170 -73.32637 2843 ft 166 kts 257°
2026-05-07 22:14 45.66877 -73.34234 2868 ft 165 kts 258°
2026-05-07 22:15 45.66577 -73.35870 2741 ft 180 kts 255°
2026-05-07 22:15 45.66253 -73.37634 2825 ft 185 kts 255°
2026-05-07 22:15 45.65927 -73.39412 2900 ft 186 kts 255°
2026-05-07 22:15 45.65599 -73.41202 2970 ft 186 kts 255°
2026-05-07 22:16 45.65269 -73.43000 2998 ft 186 kts 255°
2026-05-07 22:16 45.64939 -73.44788 3007 ft 186 kts 255°
2026-05-07 22:16 45.64607 -73.46577 3013 ft 186 kts 255°
2026-05-07 22:16 45.64277 -73.48368 3014 ft 186 kts 255°
2026-05-07 22:17 45.63947 -73.50161 3013 ft 186 kts 255°
2026-05-07 22:17 45.63617 -73.51949 3016 ft 186 kts 255°
2026-05-07 22:17 45.63215 -73.53699 3020 ft 186 kts 242°
2026-05-07 22:17 45.62380 -73.55108 3014 ft 187 kts 223°
2026-05-07 22:18 45.61422 -73.56368 3013 ft 187 kts 223°
2026-05-07 22:18 45.59671 -73.58675 3010 ft 158 kts 223°
2026-05-07 22:18 45.58891 -73.59703 2865 ft 149 kts 223°
2026-05-07 22:19 45.58137 -73.60697 2701 ft 146 kts 223°
2026-05-07 22:19 45.57396 -73.61673 2510 ft 145 kts 223°
2026-05-07 22:19 45.56658 -73.62646 2335 ft 144 kts 223°
2026-05-07 22:19 45.55932 -73.63601 2147 ft 143 kts 223°
2026-05-07 22:20 45.55191 -73.64575 1959 ft 143 kts 223°
2026-05-07 22:20 45.54469 -73.65525 1770 ft 143 kts 223°
2026-05-07 22:20 45.53741 -73.66483 1579 ft 142 kts 223°
2026-05-07 22:20 45.53006 -73.67448 1382 ft 142 kts 223°
2026-05-07 22:21 45.52291 -73.68388 1200 ft 141 kts 223°
2026-05-07 22:21 45.51568 -73.69337 1015 ft 141 kts 223°
2026-05-07 22:21 45.50868 -73.70256 824 ft 141 kts 223°
2026-05-07 22:21 45.50150 -73.71198 647 ft 140 kts 223°
2026-05-07 22:22 45.49432 -73.72140 459 ft 140 kts 223°
2026-05-07 22:22 45.48722 -73.73083 278 ft 140 kts 224°
2026-05-07 22:22 45.48019 -73.74032 149 ft 138 kts 224°
2026-05-07 22:22 45.47327 -73.74954 116 ft 128 kts 220°
2026-05-07 22:23 45.46801 -73.75593 110 ft 63 kts 221°
2026-05-07 22:23 45.46518 -73.75950 109 ft 43 kts 221°
2026-05-07 22:23 45.46356 -73.76149 107 ft 13 kts 220°
2026-05-07 22:23 45.46277 -73.76227 106 ft 13 kts 187°
2026-05-07 22:24 45.46197 -73.76194 107 ft 11 kts 153°
2026-05-07 22:24 45.46127 -73.76145 105 ft 11 kts 154°
2026-05-07 22:24 45.46064 -73.76078 105 ft 11 kts 132°
2026-05-07 22:24 45.46049 -73.75987 105 ft 9 kts 86°
2026-05-07 22:25 45.46038 -73.75903 103 ft 8 kts 122°
2026-05-07 22:25 45.45997 -73.75854 104 ft 7 kts 143°
2026-05-07 22:25 45.45965 -73.75821 105 ft 0 kts 143°